Torna al catalogo

MINOTAUR 4 R/B

AttivoVLEO
NORAD 45877·ROCKET BODY·🇺🇸 United States

Lanciato Jul 15, 2020 da Wallops Flight Facility

Loading…

Prossimi Passaggi (prossime 24 ore)

TLE

AggiornatoSource: Space-Track

Epoca: Sep 14, 2026, 05:07 UTC

1 45877U 20046E   26257.21324291  .00001195  00000-0  97206-4 0  9993
2 45877  53.9782 198.5922 0005610 225.1879 134.8667 15.07174295262342

Traccia MINOTAUR 4 R/B in tempo reale con AllMySat

Download on the App Store